sat.trackr.live / text

‹ back to catalog

GSAT0204 (GALILEO 8)

NORAD 40545 · 2015-017B

PAYLOAD ACTIVE UNKNOWN

§ Identity

Operator
Country
ESA
Launch date
2015-03-27
Launch site
FRGUI
Launch vehicle
Mass (kg)
RCS (m²)
9.46

Purposes: earth_obs, nav

External: N2YO · Heavens-Above · Gunter

§ Orbital elements

Epoch: 2026-09-15T19:15:45.218880Z

Period
844.69 min
Inclination
56.7566°
Eccentricity
0.0004699
Mean motion
1.70476021 rev/d
Perigee alt
23,208.0 km
Apogee alt
23,235.9 km
Semi-major
29,600.1 km
B*
0.0000e+0
RAAN
339.1450°
Arg perigee
240.9831°
Mean anomaly
119.0222°
Rev number
3,379

§ Raw data

GSAT0204 (GALILEO 8)1 40545U 15017B   26258.80260670 -.00000102  00000+0  00000+0 0  99962 40545  56.7566 339.1450 0004699 240.9831 119.0222  1.70476021 33792

JSON: /api/v1/satellites/40545 · /tle

For live sub-satellite position, see the globe view (requires WebGL).

§ Visibility from observer

Set your observer location to see the next 7 days of passes ≥ 10°. The values pass through the URL so the page stays shareable.

No JS? Fill the form by hand. The geolocation button needs JavaScript.